Skip Page Navigation
NASA JPL Caltech
NASA Logo - Jet Propulsion Laboratory + View the NASA Portal
+ Center for Near-Earth Object Studies
JPL Home Earth Solar System Stars & Galaxies Technology
JPL Solar System Dynamics
BODIES ORBITS EPHEMERIDES TOOLS PHYSICAL DATA DISCOVERY FAQ SITE MAP
IMPORTANT: The SSD Announcement email list is now available. Major changes are coming in the near future, including possible hostname and/or URL changes. To be notified of such changes, subscribe to this email list.

Please visit this page for more details.


JPL Small-Body Database Browser
Search: [ help ]  
447006 (2004 EU57)
Classification: Main-belt Asteroid          SPK-ID: 2447006
Ephemeris | Orbit Diagram | Orbital Elements | Mission Design | Physical Parameters | Discovery Circumstances | Close-Approach Data ]

[ show orbit diagram ]
Orbital Elements at Epoch 2458600.5 (2019-Apr-27.0) TDB
Reference: JPL 16 (heliocentric ecliptic J2000)
 Element Value Uncertainty (1-sigma)   Units 
e .177512158534275 6.9591e-08  
a 2.648229814274272 2.3088e-08 au
q 2.178136823647623 1.8426e-07 au
i 14.43619201649834 7.1054e-06 deg
node 166.7001048726761 2.1987e-05 deg
peri 10.98236031895011 2.6353e-05 deg
M 178.832330763977 1.507e-05 deg
tp 2457818.556328925663
(2017-Mar-06.05632893)
6.307e-05 TDB
period 1574.098600539322
4.31
2.0585e-05
5.636e-08
d
yr
n .2287023188233926 2.9908e-09 deg/d
Q 3.11832280490092 2.7186e-08 au
  Orbit Determination Parameters
   # obs. used (total)      192  
   data-arc span      5724 days (15.67 yr)  
   first obs. used      2004-02-26  
   last obs. used      2019-10-29  
   planetary ephem.      DE431  
   SB-pert. ephem.      SB431-N16  
   condition code      0  
   norm. resid. RMS      .62331  
   source      ORB  
   producer      Otto Matic  
   solution date      2019-Nov-08 16:20:00  

Additional Information
 Earth MOID = 1.18509 au 
 Jupiter MOID = 1.84864 au 
 T_jup = 3.325 
[ show covariance matrix ]

Ephemeris | Orbit Diagram | Orbital Elements | Mission Design | Physical Parameters | Discovery Circumstances | Close-Approach Data ]

Physical Parameter Table
Parameter Symbol Value Units Sigma Reference Notes
absolute magnitude H 16.8   n/a MPO437739  

447006 (2004 EU57)          Discovered 2004-Feb-26 by LINEAR at Socorro
Reference: Last Updated: 2015-10-28

[ hide close-approach data ]
Close-Approach Data   ...sorted by Date/Time (TDB)
Date/Time (TDB) Time Uncertainty
(days_HH:MM)
Body Nominal Distance (au) Minimum Distance (au) Maximum Distance (au) V-relative (km/s) V-infinity (km/s) JD (TDB) Time Uncertainty (minutes) Semi-major axis (km) Semi-minor axis (km) range-LOV angle (deg) N-sigma BP Orbit Ref. Reference Modified
1915-Oct-12 05:18 00:04 Jupiter 1.8441085384665 1.84410798151004 1.844109095424 3.87687568916321 3.75653293098829 2420782.720721724 3.55596144603307 493.420199843302 26.2710859625326 89.4051265499941 2065757.84469957 T 16 CATAB v2.0f-lin.ifort 2019-Nov-08 16:20:09 2019-Nov-08 16:20
1963-Mar-31 12:29 00:02 Jupiter 1.84259314825556 1.84259258117068 1.84259371534149 3.86906885059107 3.74837469107321 2438120.020007367 1.86845758531879 265.105045654155 26.0287710683932 88.1986625341524 2057088.63486711 T 16 CATAB v2.0f-lin.ifort 2019-Nov-08 16:20:09 2019-Nov-08 16:20
2010-Sep-17 11:20 < 00:01 Jupiter 1.84077850797633 1.84077793731241 1.84077907864036 3.86032357210246 3.73922596391886 2455456.972408927 0.288137240453096 74.1708197910671 25.2411133467779 81.2933700962096 2049127.23193744 T 16 CATAB v2.0f-lin.ifort 2019-Nov-08 16:20:09 2019-Nov-08 16:20
2058-Mar-06 09:37 00:01 Jupiter 1.84552691217926 1.84552633949986 1.84552748485876 3.85547076521377 3.73453281956342 2472793.900540812 1.46150634319468 208.206444167802 27.0949298426342 -89.2773960122022 2032264.56686529 T 16 CATAB v2.0f-lin.ifort 2019-Nov-08 16:20:09 2019-Nov-08 16:20
2105-Aug-24 13:00 00:03 Jupiter 1.84844698987997 1.84844642226454 1.84844755749603 3.84698519067724 3.72596641105517 2490131.041845948 3.13550808422923 429.997983027444 26.8585566934714 -89.8602259568115 2023708.94586497 T 16 CATAB v2.0f-lin.ifort 2019-Nov-08 16:20:09 2019-Nov-08 16:20
2153-Feb-11 03:28 00:05 Jupiter 1.84584073668222 1.84584017457557 1.84584129878919 3.8312617820793 3.70955569628062 2507468.644447438 4.87948415917682 665.473607457799 26.8345522670726 89.4393514666224 2006460.23166902 T 16 CATAB v2.0f-lin.ifort 2019-Nov-08 16:20:09 2019-Nov-08 16:20
2200-Aug-01 04:05 00:07 Jupiter 1.84331084396129 1.84331026156154 1.84331142637383 3.81514691460917 3.69273922669857 2524805.669818450 6.73357692892315 916.105405711653 26.8846918606338 89.0566386407496 1988784.63383848 T 16 CATAB v2.0f-lin.ifort 2019-Nov-08 16:20:09 2019-Nov-08 16:20

Alternate Designations
 2004 EU57 = 2014 QL200 
Ephemeris | Orbit Diagram | Orbital Elements | Mission Design | Physical Parameters | Discovery Circumstances | Close-Approach Data ]
ABOUT SSD CREDITS/AWARDS PRIVACY/COPYRIGHT GLOSSARY LINKS
FirstGov 2019-Dec-10 05:51 UT
(server date/time)  
NASA Home Page
Site Manager:   Ryan S. Park
Webmaster  Alan B. Chamberlin